Location: Unspecified
(43.4354°N, 0.0000°E)
Time: 14:09:38
(UTC+00:00)

Vanguard 2 Rocket - Pass Details

Date: 27 June 2019
Orbit: 554 x 3326 km, 32.9° (Epoch: 15 July)

Event Time Altitude Azimuth Distance (km) Brightness Sun altitude
Rises 19:57:56 0° 226° (SW) 3,230 9.9 -2.8°
Reaches altitude 10° 20:00:16 10° 214° (SSW) 2,530 9.2 -3.1°
Maximum altitude 20:05:26 29° 154° (SSE) 1,999 8.2 -3.9°
Drops below altitude 10° 20:13:28 10° 100° (E) 4,021 9.7 -5.0°
Sets 20:18:16 0° 91° (E) 5,535 10.4 -5.7°
